星链-31493 (STARLINK-31493 )

导读 | 豆包AI

STARLINK-31493是美国星链计划中的一颗卫星,于2024年3月25日发射升空。它隶属于SpaceX公司打造的星链卫星互联网星座,该星座旨在为全球提供高速低延迟的宽带互联网服务。作为星链组网的组成单元,这颗卫星进一步扩充了星座规模,助力全球网络覆盖能力的提升。

基本信息
目录编号:
59329
目录名称:
STARLINK-31493
国际标识:
2024-057K
轨道中心:
EARTH
卫星名称:
星链-31493
卫星全名:
星链-31493 (STARLINK-31493 )
卫星状态:
在轨 (已飞行766 天)
发射日期:
2024-03-25 UTC
国别 :
美国 (US)
星等 :
--
轨道信息
数据来源 国际轨道数据 AOE轨道数据
星历时间 2026-04-30T18:21:01+0800
13小时前
查看轨道信息
2026-04-26T09:00:00+0800
4天前
查看轨道信息
半长轴 6861.069km 6861.159km
偏心率 0.0001187 0.0001882
轨道倾角 43.003° 43.002°
近地点辐角 257.304° 265.940°
升交点赤经 254.751° 279.548°
平近点角 102.768° 46.119°
近地点 482.117km 481.73km
远地点 483.747km 484.314km
周期 94.264分钟 94.266分钟
每日圈数 15.276194 15.275892
详细信息
固有亮度:
5
最大亮度:
0.3
卫星平台:
Starlink v2.0 mini
覆盖范围:
全球
运营商:
太空探索技术公司
运营商所在国:
美国
制造商(研发单位):
太空探索技术公司
制造商所在国:
美国
使用方式:
暂无
卫星简介
星链(Starlink)计划是由太空探索技术公司(SpaceX)提出的一个巨型低轨卫星互联网星座项目,计划在2019年至2024年间在太空搭建由约1.2万颗卫星组成的“星链”网络,其中1584颗将部署在地球上空550千米处的近地轨道,并从2020年开始工作。该卫星仍在工作。
2D轨道图
3D轨道图
轨道高度分析图
轨道倾角分析图
轨道综合分析图
查看轨道综合分析图